When you browse on this site, cookies collect data to enhance your experience and personalize the content and advertising you see.
Visit our Privacy Policy to learn more. By continuing to use the site, you agree to this use of cookies and data.
  • în România
  • Lista ţărilor
  • Pe 7 zile
  • Temperatura apei
  • Hartă satelitară
  • Meteo pe hartă
  • Widget-uri
  • user-avatar
    Intrare

    Meteo pe oră la Lourdes

    Astăzi, 19 Iunie, Miercuri

    Timp Temperatura Precipitaţii Vânt Presiune Umiditate
    00:00 +16°C° 0 mm 3 m/s 694 mmHg 66%
    01:00 +16°C° 0 mm 3 m/s 694 mmHg 67%
    02:00 +15°C° 0 mm 2 m/s 694 mmHg 69%
    03:00 +15°C° 0 mm 2 m/s 694 mmHg 70%
    04:00 +15°C° 0 mm 2 m/s 694 mmHg 70%
    05:00 +16°C° 0 mm 1 m/s 695 mmHg 70%
    06:00 +18°C° 0 mm 1 m/s 695 mmHg 70%
    07:00 +20°C° 0 mm 1 m/s 695 mmHg 66%
    08:00 +21°C° 0 mm 1 m/s 696 mmHg 61%
    09:00 +23°C° 0 mm 1 m/s 696 mmHg 57%
    10:00 +24°C° 0 mm 1 m/s 696 mmHg 57%
    11:00 +24°C° 0 mm 2 m/s 696 mmHg 57%
    12:00 +24°C° 0 mm 2 m/s 696 mmHg 58%
    13:00 +24°C° 0.5 mm 2 m/s 696 mmHg 65%
    14:00 +23°C° 0.5 mm 2 m/s 695 mmHg 71%
    15:00 +21°C° 0.5 mm 2 m/s 695 mmHg 77%
    16:00 +21°C° 0.8 mm 2 m/s 695 mmHg 82%
    17:00 +21°C° 0.8 mm 1 m/s 695 mmHg 86%
    18:00 +20°C° 0.8 mm 1 m/s 695 mmHg 90%
    19:00 +19°C° 0.4 mm 1 m/s 695 mmHg 93%
    20:00 +17°C° 0.4 mm 2 m/s 695 mmHg 95%
    21:00 +16°C° 0.4 mm 2 m/s 696 mmHg 97%
    22:00 +16°C° 0.2 mm 2 m/s 696 mmHg 97%
    23:00 +15°C° 0.2 mm 1 m/s 696 mmHg 98%

    Mâine, 20 Iunie, Joi

    Timp Temperatura Precipitaţii Vânt Presiune Umiditate
    00:00 +15°C° 0.2 mm 1 m/s 696 mmHg 98%
    01:00 +15°C° 0.1 mm 1 m/s 696 mmHg 98%
    02:00 +14°C° 0.1 mm 1 m/s 696 mmHg 98%
    03:00 +14°C° 0.1 mm 1 m/s 696 mmHg 98%
    04:00 +13°C° 0 mm 0 m/s 696 mmHg 97%
    05:00 +13°C° 0 mm 0 m/s 696 mmHg 97%
    06:00 +13°C° 0 mm 0 m/s 697 mmHg 96%
    07:00 +15°C° 0.1 mm 1 m/s 697 mmHg 95%
    08:00 +15°C° 0.1 mm 1 m/s 697 mmHg 94%
    09:00 +16°C° 0.1 mm 1 m/s 697 mmHg 93%
    10:00 +16°C° 0.2 mm 1 m/s 697 mmHg 92%
    11:00 +16°C° 0.2 mm 1 m/s 697 mmHg 92%
    12:00 +16°C° 0.2 mm 2 m/s 697 mmHg 92%
    13:00 +18°C° 0.2 mm 1 m/s 696 mmHg 90%
    14:00 +18°C° 0.2 mm 1 m/s 696 mmHg 89%
    15:00 +19°C° 0.2 mm 1 m/s 696 mmHg 87%
    16:00 +18°C° 0.2 mm 1 m/s 696 mmHg 88%
    17:00 +18°C° 0.2 mm 1 m/s 696 mmHg 90%
    18:00 +18°C° 0.2 mm 1 m/s 696 mmHg 91%
    19:00 +18°C° 0.6 mm 1 m/s 696 mmHg 93%
    20:00 +16°C° 0.6 mm 1 m/s 697 mmHg 95%
    21:00 +15°C° 0.6 mm 1 m/s 697 mmHg 97%
    22:00 +15°C° 0.7 mm 1 m/s 697 mmHg 98%
    23:00 +15°C° 0.7 mm 1 m/s 697 mmHg 98%

    Poimâine, 21 Iunie, Vineri

    Timp Temperatura Precipitaţii Vânt Presiune Umiditate
    00:00 +14°C° 0.7 mm 1 m/s 697 mmHg 98%
    01:00 +14°C° 0.2 mm 1 m/s 697 mmHg 98%
    02:00 +14°C° 0.2 mm 1 m/s 696 mmHg 98%
    03:00 +13°C° 0.2 mm 1 m/s 696 mmHg 98%
    04:00 +13°C° 0.7 mm 1 m/s 696 mmHg 98%
    05:00 +13°C° 0.7 mm 1 m/s 696 mmHg 98%
    06:00 +14°C° 0.7 mm 1 m/s 696 mmHg 98%
    07:00 +14°C° 0.6 mm 1 m/s 697 mmHg 98%
    08:00 +14°C° 0.6 mm 1 m/s 697 mmHg 98%
    09:00 +14°C° 0.6 mm 2 m/s 697 mmHg 98%
    10:00 +14°C° 1.2 mm 2 m/s 697 mmHg 98%
    11:00 +14°C° 1.2 mm 2 m/s 697 mmHg 98%
    12:00 +13°C° 1.2 mm 2 m/s 697 mmHg 98%
    13:00 +14°C° 0.2 mm 1 m/s 697 mmHg 97%
    14:00 +14°C° 0.2 mm 1 m/s 697 mmHg 96%
    15:00 +14°C° 0.2 mm 1 m/s 697 mmHg 95%
    16:00 +14°C° 0.1 mm 1 m/s 697 mmHg 94%
    17:00 +14°C° 0.1 mm 1 m/s 697 mmHg 94%
    18:00 +15°C° 0.1 mm 1 m/s 697 mmHg 94%
    19:00 +14°C° 0 mm 1 m/s 697 mmHg 94%
    20:00 +14°C° 0 mm 1 m/s 698 mmHg 95%
    21:00 +12°C° 0 mm 0 m/s 698 mmHg 95%
    22:00 +12°C° 0 mm 0 m/s 698 mmHg 96%
    23:00 +12°C° 0 mm 0 m/s 698 mmHg 97%

    22 Iunie, Sâmbătă

    Timp Temperatura Precipitaţii Vânt Presiune Umiditate
    00:00 +11°C° 0 mm 0 m/s 698 mmHg 97%
    01:00 +11°C° 0 mm 0 m/s 698 mmHg 97%
    02:00 +11°C° 0 mm 0 m/s 697 mmHg 96%
    03:00 +11°C° 0 mm 0 m/s 697 mmHg 95%
    04:00 +11°C° 0 mm 0 m/s 697 mmHg 94%
    05:00 +12°C° 0 mm 0 m/s 697 mmHg 92%
    06:00 +13°C° 0 mm 0 m/s 697 mmHg 90%
    07:00 +16°C° 0 mm 1 m/s 698 mmHg 83%
    08:00 +18°C° 0 mm 1 m/s 698 mmHg 75%
    09:00 +19°C° 0 mm 2 m/s 698 mmHg 68%
    10:00 +20°C° 0 mm 2 m/s 698 mmHg 66%
    11:00 +21°C° 0 mm 2 m/s 698 mmHg 65%
    12:00 +23°C° 0 mm 2 m/s 698 mmHg 63%
    13:00 +23°C° 0 mm 2 m/s 697 mmHg 64%
    14:00 +23°C° 0 mm 2 m/s 697 mmHg 64%
    15:00 +24°C° 0 mm 2 m/s 696 mmHg 64%
    16:00 +23°C° 0 mm 2 m/s 696 mmHg 68%
    17:00 +23°C° 0 mm 2 m/s 696 mmHg 72%
    18:00 +22°C° 0 mm 1 m/s 695 mmHg 76%
    19:00 +20°C° 0 mm 2 m/s 696 mmHg 74%
    20:00 +19°C° 0 mm 2 m/s 696 mmHg 72%
    21:00 +17°C° 0 mm 2 m/s 696 mmHg 70%
    22:00 +17°C° 0 mm 2 m/s 696 mmHg 67%
    23:00 +17°C° 0 mm 2 m/s 696 mmHg 65%

    23 Iunie, Duminică

    Timp Temperatura Precipitaţii Vânt Presiune Umiditate
    00:00 +17°C° 0 mm 2 m/s 695 mmHg 62%
    01:00 +17°C° 0 mm 2 m/s 695 mmHg 61%
    02:00 +18°C° 0 mm 2 m/s 695 mmHg 59%
    03:00 +18°C° 0 mm 2 m/s 695 mmHg 58%
    04:00 +18°C° 0 mm 2 m/s 695 mmHg 60%
    05:00 +19°C° 0 mm 2 m/s 695 mmHg 62%
    06:00 +19°C° 0 mm 2 m/s 696 mmHg 64%
    07:00 +23°C° 0 mm 2 m/s 696 mmHg 58%
    08:00 +25°C° 0 mm 2 m/s 696 mmHg 52%
    09:00 +28°C° 0 mm 1 m/s 697 mmHg 47%
    10:00 +29°C° 0 mm 1 m/s 697 mmHg 45%
    11:00 +30°C° 0 mm 1 m/s 697 mmHg 43%
    12:00 +31°C° 0 mm 1 m/s 697 mmHg 41%
    13:00 +31°C° 0 mm 1 m/s 697 mmHg 42%
    14:00 +31°C° 0 mm 1 m/s 696 mmHg 43%
    15:00 +32°C° 0 mm 1 m/s 696 mmHg 43%
    16:00 +30°C° 0 mm 1 m/s 696 mmHg 53%
    17:00 +29°C° 0 mm 1 m/s 696 mmHg 63%
    18:00 +27°C° 0 mm 1 m/s 696 mmHg 73%
    19:00 +25°C° 0 mm 1 m/s 696 mmHg 73%
    20:00 +21°C° 0 mm 2 m/s 696 mmHg 74%
    21:00 +19°C° 0 mm 3 m/s 695 mmHg 75%
    22:00 +18°C° 0 mm 3 m/s 696 mmHg 73%
    23:00 +18°C° 0 mm 3 m/s 696 mmHg 71%

    24 Iunie, Luni

    Timp Temperatura Precipitaţii Vânt Presiune Umiditate
    00:00 +18°C° 0 mm 2 m/s 696 mmHg 70%
    01:00 +18°C° 0 mm 2 m/s 696 mmHg 70%
    02:00 +17°C° 0 mm 2 m/s 696 mmHg 70%
    03:00 +17°C° 0 mm 2 m/s 696 mmHg 70%
    04:00 +17°C° 0 mm 2 m/s 696 mmHg 71%
    05:00 +18°C° 0 mm 2 m/s 696 mmHg 72%
    06:00 +19°C° 0 mm 1 m/s 696 mmHg 72%
    07:00 +21°C° 0 mm 1 m/s 697 mmHg 67%
    08:00 +23°C° 0 mm 1 m/s 697 mmHg 62%
    09:00 +23°C° 0 mm 0 m/s 698 mmHg 57%
    10:00 +26°C° 0 mm 1 m/s 698 mmHg 55%
    11:00 +28°C° 0 mm 1 m/s 698 mmHg 53%
    12:00 +29°C° 0 mm 2 m/s 698 mmHg 50%
    13:00 +29°C° 0 mm 2 m/s 697 mmHg 51%
    14:00 +29°C° 0 mm 2 m/s 697 mmHg 52%
    15:00 +29°C° 0 mm 2 m/s 697 mmHg 52%
    16:00 +28°C° 0 mm 1 m/s 696 mmHg 59%
    17:00 +27°C° 0 mm 1 m/s 696 mmHg 66%
    18:00 +27°C° 0 mm 1 m/s 696 mmHg 73%
    19:00 +24°C° 0 mm 1 m/s 696 mmHg 75%
    20:00 +21°C° 0 mm 2 m/s 696 mmHg 78%
    21:00 +19°C° 0 mm 3 m/s 697 mmHg 81%
    22:00 +18°C° 0 mm 3 m/s 697 mmHg 79%
    23:00 +18°C° 0 mm 2 m/s 697 mmHg 78%
    Arată mai mult